[[{"header":{"parameterUnit":"m.s-1","parameterCategory":1,"la1":30.2991,"la2":30.254,"lo1":-89.0895,"lo2":-89.0444,"dy":0.0017,"dx":0.0017,"nx":28,"ny":28,"refTime":"2025-07-13T03:00:00:Z","depth":0,"parameterNumber":2,"parameterNumberName":"U-component_of_WINDS"},"data":[0,0,0,0,0,0,0,0,0,0,0,0,0,0,0,0,0,0,0,0,0,0,0,0,0,0,0,0,0,0,0,0,0,0,0,0,0,0,0,0,0,0,0,0,0,0,0,0,0,0,0,0,0,0,0,0,0,0,1.9587,1.9589,0,1.9774,1.9776,1.9779,1.9797,1.9795,1.9793,1.9791,1.999,1.9997,2.0004,0,0,0,0,0,0,0,0,0,0,0,0,0,1.9251,1.9257,1.9587,1.9589,1.9592,1.9774,1.9777,1.9779,1.9797,1.9795,1.9793,1.979,1.9987,1.9996,2.0004,0,0,0,0,0,0,0,0,0,0,0,0,0,1.9413,1.9259,1.9587,1.9623,1.9628,1.9773,1.9777,1.978,1.9798,1.9795,1.9792,1.9789,1.9985,1.9995,2.0005,2.013,0,0,2.0038,2.0043,0,0,0,0,0,0,0,0,1.9404,1.9426,1.9615,1.962,1.9626,1.9759,1.9731,1.9898,1.9799,1.9734,1.9791,1.9788,1.9916,1.9932,1.9974,2.0139,2.0148,2.0039,2.0045,2.005,2.0053,0,0,0,0,0,0,0,1.9393,1.9418,1.9661,1.9618,1.9625,1.9631,1.9651,1.9762,1.9839,1.9739,1.9741,1.9762,1.9918,1.9963,1.9979,2.0151,2.0039,2.0048,2.0055,2.0059,2.0428,2.0431,0,0,0,0,0,0,1.9374,1.9408,1.9655,1.9667,1.9505,1.964,1.9662,1.972,1.9838,1.9853,1.9765,1.9762,1.9947,1.9966,1.9986,2.0139,2.005,2.006,2.0066,2.0424,2.0429,2.0432,0,0,0,0,0,0,1.9367,1.9396,1.9648,1.9538,1.9571,1.9648,1.9713,1.9725,1.977,1.9857,1.9872,1.9796,1.9945,1.9971,2.0093,2.0146,2.0065,2.0074,2.042,2.0426,2.043,2.0446,0,0,0,0,0,0,1.9357,1.9393,1.944,1.9539,1.9576,1.9751,1.9717,1.9731,1.9787,1.9786,1.9891,1.9905,1.9945,2.0077,2.0104,2.0159,2.0083,2.0416,2.0423,2.0429,2.0441,2.0451,2.0459,0,0,0,0,0,1.9345,1.9438,1.9442,1.9472,1.9636,1.9754,1.9775,1.9817,1.9791,1.984,1.9896,1.9902,2.0136,2.009,2.012,2.0179,2.0413,2.0421,2.0428,2.0437,2.0449,2.0459,0,0,0,0,0,0,1.9346,1.9452,1.9457,1.9585,1.966,1.9756,1.9819,1.9829,1.9914,1.991,1.996,1.9984,2.0104,2.0154,2.0101,2.0306,2.0272,2.0286,2.0268,2.028,2.0289,2.0275,2.0092,0,0,0,0,0,1.9361,1.9445,1.9534,1.9639,1.9676,1.9741,1.9794,1.9819,1.9899,1.9932,1.9997,2.0076,2.0168,2.0227,2.0316,2.0449,2.0472,2.0504,2.0513,2.052,2.0532,2.0605,2.062,2.0457,2.0457,2.0457,0,0,1.9393,1.9461,1.9512,1.9641,1.9701,1.9789,1.9767,1.9862,1.9928,1.9947,2.0066,2.0117,2.0209,2.0336,2.0396,2.0382,2.0582,2.053,2.0535,2.0543,2.0614,2.063,2.0643,2.0463,2.0462,2.0461,0,0,1.9496,1.9556,1.9649,1.971,1.9801,1.9844,1.9866,1.9961,1.9995,2.0115,2.013,2.0211,2.0368,2.0432,2.0485,2.0612,2.062,2.064,2.0687,2.0758,2.0771,2.0783,2.0827,2.0843,2.0651,2.0651,2.0651,0,1.9525,1.9656,1.9696,1.9789,1.9846,1.9865,1.996,2.0018,2.0135,2.0174,2.0156,2.0351,2.0415,2.0558,2.0588,2.0631,2.0659,2.0628,2.0766,2.0778,2.0789,2.0832,2.0849,2.0653,2.0653,2.0653,2.0652,0,1.9686,1.9777,1.9842,1.9951,2.0015,2.0109,2.0165,2.0225,2.0245,2.029,2.0412,2.0488,2.0593,2.0629,2.0651,2.0775,2.0763,2.0755,2.0722,2.0806,2.0847,2.0864,2.0655,2.0655,2.0654,2.0654,0,0,1.9795,1.9925,1.9948,1.9997,2.0099,2.0171,2.0267,2.0366,2.0416,2.0497,2.0578,2.071,2.0702,2.0763,2.0792,2.0854,2.0949,2.0838,2.0841,2.0856,2.109,2.1095,2.1114,2.0955,2.0958,2.0961,2.1082,0,1.9909,2.0076,2.0115,2.026,2.0344,2.0363,2.0446,2.0519,2.0563,2.0643,2.0693,2.0785,2.0768,2.0805,2.0867,2.0924,2.0996,2.0916,2.1032,2.1036,2.1008,2.1135,2.1141,2.1252,2.1099,2.1102,2.1104,0,2.0064,2.0145,2.0296,2.0386,2.0424,2.0497,2.0591,2.0667,2.075,2.0778,2.0845,2.0867,2.0969,2.0931,2.1072,2.1016,2.1066,2.1101,2.1106,2.1119,2.1074,2.1151,2.1289,2.1305,2.113,2.1128,2.1126,0,2.0127,2.0274,2.0384,2.0426,2.0534,2.0585,2.0633,2.0713,2.077,2.0853,2.0891,2.0986,2.1038,2.1111,2.116,2.1128,2.1297,2.1263,2.1324,2.1322,2.1358,2.1355,2.1505,2.1391,2.1391,2.1391,2.139,0,2.025,2.0342,2.0413,2.048,2.0584,2.0629,2.0732,2.078,2.0851,2.0929,2.0953,2.1026,2.1085,2.1168,2.1206,2.1317,2.1341,2.1367,2.1376,2.1365,2.1361,2.1398,2.1391,2.1395,2.1394,2.1393,2.1393,0,2.0338,2.0389,2.0509,2.0601,2.0626,2.0699,2.0778,2.0845,2.089,2.0989,2.1015,2.1086,2.1184,2.1239,2.1363,2.1389,2.1512,2.1517,2.1483,2.1487,2.1544,2.1537,2.1723,2.1749,2.1618,2.1619,2.162,0,2.0412,2.0483,2.0581,2.0634,2.0682,2.0767,2.0825,2.0873,2.0932,2.1031,2.1087,2.1185,2.1266,2.1422,2.1486,2.1581,2.1589,2.1647,2.1603,2.1589,2.1589,2.1584,2.1591,2.1655,2.1656,2.1657,2.1658,0,2.0538,2.056,2.0641,2.0731,2.0799,2.0873,2.0946,2.0989,2.1049,2.1115,2.1214,2.1276,2.1401,2.1499,2.1599,2.1651,2.1665,2.1671,2.169,2.1678,2.1655,2.1668,2.1503,2.1666,2.1665,2.1665,2.1664,2.1664,2.0622,2.0685,2.0763,2.0853,2.0913,2.0981,2.1048,2.11,2.1182,2.1286,2.131,2.1414,2.1496,2.1631,2.1685,2.1768,2.1758,2.1785,2.1792,2.1798,2.18,2.1642,2.1787,2.1786,2.1786,2.1786,2.1786,0,2.0748,2.0799,2.0881,2.0982,2.1053,2.1057,2.1139,2.1199,2.1289,2.1363,2.1442,2.1555,2.165,2.1721,2.1818,2.1872,2.188,2.1896,2.1892,2.1904,2.1804,2.1777,2.1887,2.1887,2.1887,2.1886,2.1886,2.1886,2.0823,2.093,2.096,2.1098,2.1149,2.1249,2.1295,2.1359,2.1418,2.1543,2.162,2.1665,2.1739,2.1841,2.1929,2.1948,2.1983,2.1997,2.2016,2.1922,2.1911,2.19,2.1876,2.2004,2.2004,2.2109,2.211,2.2111]},{"header":{"parameterUnit":"m.s-1","parameterCategory":1,"la1":30.2991,"la2":30.254,"lo1":-89.0895,"lo2":-89.0444,"dy":0.0017,"dx":0.0017,"nx":28,"ny":28,"refTime":"2025-07-13T03:00:00:Z","depth":0,"parameterNumber":3,"parameterNumberName":"V-component_of_WINDS"},"data":[0,0,0,0,0,0,0,0,0,0,0,0,0,0,0,0,0,0,0,0,0,0,0,0,0,0,0,0,0,0,0,0,0,0,0,0,0,0,0,0,0,0,0,0,0,0,0,0,0,0,0,0,0,0,0,0,0,0,2.4967,2.4967,0,2.4989,2.499,2.499,2.4943,2.4942,2.494,2.4939,2.4958,2.496,2.4962,0,0,0,0,0,0,0,0,0,0,0,0,0,2.488,2.4881,2.4967,2.4967,2.4967,2.4989,2.499,2.499,2.4944,2.4942,2.494,2.4938,2.4958,2.496,2.4962,0,0,0,0,0,0,0,0,0,0,0,0,0,2.4911,2.4882,2.4967,2.4947,2.4946,2.4989,2.499,2.499,2.4944,2.4942,2.494,2.4937,2.4957,2.496,2.4962,2.5025,0,0,2.4971,2.4972,0,0,0,0,0,0,0,0,2.491,2.4914,2.495,2.4949,2.4947,2.4961,2.4966,2.5002,2.4945,2.4945,2.4939,2.4936,2.4961,2.4963,2.4972,2.5026,2.5027,2.4971,2.4973,2.4974,2.4975,0,0,0,0,0,0,0,2.4907,2.4913,2.4976,2.495,2.4949,2.4936,2.4938,2.4972,2.4965,2.4944,2.4941,2.4945,2.496,2.497,2.4972,2.5027,2.4971,2.4974,2.4976,2.4977,2.5133,2.5135,0,0,0,0,0,0,2.4908,2.4912,2.4975,2.4976,2.4922,2.4939,2.4941,2.4959,2.4964,2.4963,2.4946,2.4942,2.4966,2.4969,2.4973,2.5046,2.4974,2.4977,2.4979,2.513,2.5133,2.5136,0,0,0,0,0,0,2.4907,2.4914,2.4974,2.4943,2.495,2.4943,2.4963,2.4961,2.4971,2.4966,2.4964,2.4958,2.4964,2.4969,2.5013,2.5046,2.4978,2.4981,2.5128,2.5131,2.5135,2.5194,0,0,0,0,0,0,2.4904,2.4914,2.4939,2.4944,2.4952,2.5015,2.4965,2.4963,2.4976,2.4971,2.4977,2.4975,2.4963,2.5009,2.5016,2.5049,2.4983,2.5124,2.5129,2.5134,2.5189,2.5199,2.5208,0,0,0,0,0,2.4901,2.4954,2.494,2.4948,2.4983,2.5017,2.5021,2.5006,2.4979,2.5003,2.5,2.4975,2.5042,2.5014,2.5021,2.5056,2.5122,2.5128,2.5133,2.5185,2.5197,2.5208,0,0,0,0,0,0,2.4951,2.4954,2.4939,2.4995,2.5006,2.5009,2.5039,2.502,2.5038,2.5032,2.5012,2.5014,2.5061,2.5063,2.5031,2.5116,2.5077,2.5084,2.5114,2.5126,2.5135,2.5133,2.4986,0,0,0,0,0,2.4969,2.4998,2.4998,2.5048,2.5054,2.5046,2.506,2.5048,2.5058,2.5062,2.5062,2.5072,2.5095,2.511,2.5131,2.5189,2.5189,2.5217,2.5226,2.5234,2.524,2.527,2.5282,2.5154,2.5154,2.5154,0,0,2.5005,2.5011,2.503,2.5058,2.5065,2.5094,2.505,2.5082,2.5103,2.5067,2.5108,2.5109,2.5118,2.5169,2.5192,2.5172,2.5276,2.5241,2.5247,2.5249,2.5277,2.5289,2.53,2.5158,2.5157,2.5156,0,0,2.5087,2.5094,2.5136,2.5144,2.5156,2.515,2.516,2.5166,2.5165,2.5207,2.518,2.5204,2.5244,2.5252,2.5261,2.5345,2.5323,2.5353,2.5402,2.5432,2.5442,2.545,2.548,2.5491,2.5359,2.5359,2.5359,0,2.513,2.5174,2.5159,2.5194,2.5207,2.5176,2.5217,2.5226,2.5243,2.5252,2.523,2.528,2.5284,2.5336,2.5357,2.5366,2.5375,2.5352,2.5442,2.545,2.5458,2.5486,2.5498,2.5363,2.5362,2.5362,2.5362,0,2.5227,2.5258,2.529,2.5309,2.5325,2.5363,2.5353,2.5371,2.5357,2.5353,2.5396,2.54,2.5421,2.5432,2.5419,2.5483,2.547,2.5445,2.5405,2.5474,2.55,2.5511,2.5368,2.5366,2.5365,2.5364,0,0,2.5339,2.5351,2.5363,2.5371,2.5382,2.5405,2.5441,2.5462,2.5478,2.5491,2.552,2.5555,2.5532,2.5542,2.553,2.5556,2.5622,2.5528,2.5527,2.5545,2.5691,2.571,2.5723,2.5607,2.5609,2.5611,2.5691,0,2.542,2.5483,2.5471,2.5532,2.556,2.5532,2.5563,2.5572,2.557,2.5592,2.5588,2.5613,2.5581,2.5587,2.5612,2.5609,2.5651,2.5603,2.5633,2.5634,2.5631,2.5736,2.5755,2.5831,2.5701,2.5702,2.5704,0,2.5522,2.554,2.5605,2.5611,2.5622,2.5651,2.567,2.5692,2.5701,2.5698,2.571,2.5692,2.5726,2.5687,2.5733,2.5701,2.5712,2.5713,2.5715,2.5717,2.5673,2.574,2.5854,2.5865,2.5719,2.5718,2.5717,0,2.5597,2.5637,2.5681,2.5689,2.5698,2.5719,2.5723,2.5731,2.5745,2.5761,2.5769,2.5789,2.58,2.5815,2.5802,2.5774,2.5851,2.581,2.5847,2.5848,2.5864,2.5863,2.5981,2.5873,2.5873,2.5872,2.5872,0,2.5687,2.5728,2.5715,2.5742,2.5787,2.5772,2.5815,2.5816,2.5823,2.5849,2.5825,2.5849,2.5832,2.5854,2.5844,2.5884,2.5889,2.5886,2.5883,2.5888,2.5889,2.5895,2.5889,2.5875,2.5875,2.5874,2.5874,0,2.5778,2.5772,2.5818,2.5823,2.5825,2.5857,2.5861,2.5885,2.5881,2.5914,2.5921,2.5914,2.5939,2.5928,2.5955,2.5948,2.5999,2.5989,2.5996,2.5993,2.6031,2.6028,2.6157,2.6173,2.6055,2.6056,2.6057,0,2.5836,2.5867,2.5875,2.5892,2.5898,2.5924,2.5939,2.5925,2.5941,2.5954,2.5977,2.6,2.6018,2.606,2.6056,2.6076,2.6066,2.611,2.6069,2.6073,2.6066,2.6065,2.6067,2.6118,2.612,2.6121,2.6122,0,2.5939,2.5934,2.5957,2.5979,2.5997,2.6013,2.6026,2.6041,2.6027,2.6046,2.6072,2.6087,2.6114,2.6137,2.6155,2.6158,2.6138,2.6135,2.6145,2.615,2.6152,2.6151,2.6018,2.6132,2.6131,2.613,2.613,2.6129,2.6014,2.604,2.6051,2.6077,2.6086,2.6099,2.6123,2.6122,2.6144,2.6166,2.6156,2.6187,2.6195,2.6217,2.6223,2.6246,2.6228,2.6242,2.6246,2.6249,2.6254,2.615,2.6249,2.6248,2.6248,2.6248,2.6248,0,2.6116,2.6121,2.6145,2.6166,2.6186,2.6167,2.6181,2.6198,2.6226,2.6236,2.6255,2.6285,2.6307,2.6306,2.6327,2.6345,2.6336,2.6351,2.6349,2.635,2.6269,2.6258,2.6358,2.6358,2.6358,2.6358,2.6358,2.6358,2.6171,2.6213,2.621,2.6257,2.6262,2.6293,2.6302,2.6314,2.6322,2.6357,2.6377,2.6376,2.6381,2.6402,2.6422,2.6421,2.6429,2.6447,2.6443,2.6367,2.6356,2.6345,2.6335,2.6449,2.645,2.6522,2.6523,2.6523]}]]